Time,TemperatureF,DewpointF,PressureIn,WindDirection,WindDirectionDegrees,WindSpeedMPH,WindSpeedGustMPH,Humidity,HourlyPrecipIn,Conditions,Clouds,dailyrainin,SoftwareType,DateUTC
2013-08-02 00:02:00,55.0,53.0,29.99,East,89,2.0,3.0,92,-99.99,,,-99.99,,2013-08-02 07:02:00,
2013-08-02 00:12:00,55.0,53.0,29.99,East,89,2.0,3.0,92,-99.99,,,-99.99,,2013-08-02 07:12:00,
2013-08-02 00:22:00,55.0,53.0,29.99,East,89,2.0,3.0,92,-99.99,,,-99.99,,2013-08-02 07:22:00,
2013-08-02 00:33:00,55.0,53.0,29.99,East,82,1.0,2.0,92,-99.99,,,-99.99,,2013-08-02 07:33:00,
2013-08-02 00:44:00,55.0,53.0,29.99,East,82,1.0,2.0,92,-99.99,,,-99.99,,2013-08-02 07:44:00,
2013-08-02 00:53:00,55.0,53.0,29.99,East,82,1.0,2.0,92,-99.99,,,-99.99,,2013-08-02 07:53:00,
2013-08-02 01:02:00,55.0,53.0,29.99,East,82,1.0,2.0,92,-99.99,,,-99.99,,2013-08-02 08:02:00,
2013-08-02 01:12:00,55.0,53.0,29.99,East,82,1.0,2.0,92,-99.99,,,-99.99,,2013-08-02 08:12:00,
2013-08-02 01:43:00,54.0,52.0,29.97,East,79,0.0,0.0,93,-99.99,,,-99.99,,2013-08-02 08:43:00,
2013-08-02 01:54:00,54.0,52.0,29.97,East,79,0.0,0.0,93,-99.99,,,-99.99,,2013-08-02 08:54:00,
2013-08-02 02:02:00,54.0,52.0,29.97,East,79,0.0,0.0,93,-99.99,,,-99.99,,2013-08-02 09:02:00,
2013-08-02 02:12:00,54.0,52.0,29.97,East,79,0.0,0.0,93,-99.99,,,-99.99,,2013-08-02 09:12:00,
2013-08-02 02:33:00,54.0,52.0,29.97,East,79,0.0,0.0,93,-99.99,,,-99.99,,2013-08-02 09:33:00,
2013-08-02 02:43:00,54.0,52.0,29.96,East,79,0.0,0.0,92,-99.99,,,-99.99,,2013-08-02 09:43:00,
2013-08-02 02:53:00,54.0,52.0,29.96,East,79,0.0,0.0,92,-99.99,,,-99.99,,2013-08-02 09:53:00,
2013-08-02 03:02:00,53.0,51.0,29.96,East,79,0.0,0.0,92,-99.99,,,-99.99,,2013-08-02 10:02:00,
2013-08-02 03:12:00,53.0,51.0,29.96,East,79,0.0,0.0,92,-99.99,,,-99.99,,2013-08-02 10:12:00,
2013-08-02 03:23:00,52.0,50.0,29.97,East,79,0.0,0.0,92,-99.99,,,-99.99,,2013-08-02 10:23:00,
2013-08-02 03:33:00,52.0,50.0,29.97,East,79,0.0,0.0,92,-99.99,,,-99.99,,2013-08-02 10:33:00,
2013-08-02 03:43:00,52.0,50.0,29.97,East,79,0.0,0.0,92,-99.99,,,-99.99,,2013-08-02 10:43:00,
2013-08-02 03:52:00,51.0,49.0,29.97,East,79,0.0,0.0,93,-99.99,,,-99.99,,2013-08-02 10:52:00,
2013-08-02 04:02:00,51.0,49.0,29.97,East,79,0.0,0.0,93,-99.99,,,-99.99,,2013-08-02 11:02:00,
2013-08-02 04:11:00,52.0,50.0,29.97,East,79,0.0,0.0,93,-99.99,,,-99.99,,2013-08-02 11:11:00,
2013-08-02 04:32:00,52.0,50.0,29.97,East,79,0.0,0.0,94,-99.99,,,-99.99,,2013-08-02 11:32:00,
2013-08-02 04:42:00,52.0,50.0,29.97,East,79,0.0,0.0,94,-99.99,,,-99.99,,2013-08-02 11:42:00,
2013-08-02 04:52:00,52.0,50.0,29.97,East,79,0.0,0.0,94,-99.99,,,-99.99,,2013-08-02 11:52:00,
2013-08-02 05:02:00,53.0,52.0,29.97,East,79,0.0,0.0,95,-99.99,,,-99.99,,2013-08-02 12:02:00,
2013-08-02 05:11:00,53.0,52.0,29.98,East,79,0.0,0.0,95,-99.99,,,-99.99,,2013-08-02 12:11:00,
2013-08-02 05:32:00,53.0,52.0,29.97,East,79,0.0,0.0,95,-99.99,,,-99.99,,2013-08-02 12:32:00,
2013-08-02 05:42:00,54.0,53.0,29.97,SW,223,0.0,1.0,95,-99.99,,,-99.99,,2013-08-02 12:42:00,
2013-08-02 05:52:00,54.0,53.0,29.97,South,171,0.0,2.0,96,-99.99,,,-99.99,,2013-08-02 12:52:00,
2013-08-02 06:01:00,54.0,53.0,29.97,South,171,0.0,2.0,96,-99.99,,,-99.99,,2013-08-02 13:01:00,
2013-08-02 06:12:00,54.0,53.0,29.97,South,171,0.0,2.0,96,-99.99,,,-99.99,,2013-08-02 13:12:00,
2013-08-02 06:22:00,54.0,53.0,29.97,South,186,0.0,0.0,96,-99.99,,,-99.99,,2013-08-02 13:22:00,
2013-08-02 06:42:00,54.0,53.0,29.97,SSE,160,0.0,3.0,96,-99.99,,,-99.99,,2013-08-02 13:42:00,
2013-08-02 06:52:00,54.0,53.0,29.97,SSE,160,0.0,3.0,96,-99.99,,,-99.99,,2013-08-02 13:52:00,
2013-08-02 07:02:00,54.0,53.0,29.98,SW,216,3.0,0.0,96,-99.99,,,-99.99,,2013-08-02 14:02:00,
2013-08-02 07:12:00,54.0,53.0,29.98,SW,216,3.0,0.0,96,-99.99,,,-99.99,,2013-08-02 14:12:00,
2013-08-02 07:22:00,54.0,53.0,29.98,SW,216,3.0,0.0,96,-99.99,,,-99.99,,2013-08-02 14:22:00,
2013-08-02 07:32:00,54.0,53.0,30.45,SW,216,3.0,0.0,96,-99.99,,,-99.99,,2013-08-02 14:32:00,
2013-08-02 07:43:00,54.0,53.0,30.45,SW,216,3.0,0.0,96,-99.99,,,-99.99,,2013-08-02 14:43:00,
2013-08-02 07:53:00,54.0,53.0,30.45,SW,216,3.0,0.0,96,-99.99,,,-99.99,,2013-08-02 14:53:00,
2013-08-02 08:03:00,54.0,53.0,30.45,SW,216,3.0,0.0,96,-99.99,,,-99.99,,2013-08-02 15:03:00,
2013-08-02 08:22:00,54.0,53.0,30.40,SW,216,3.0,0.0,96,-99.99,,,-99.99,,2013-08-02 15:22:00,
2013-08-02 08:32:00,54.0,53.0,30.40,SW,216,3.0,0.0,96,-99.99,,,-99.99,,2013-08-02 15:32:00,
2013-08-02 08:52:00,54.0,53.0,30.41,SSE,167,1.0,7.0,97,-99.99,,,-99.99,,2013-08-02 15:52:00,
2013-08-02 09:02:00,54.0,53.0,30.41,SSE,167,1.0,7.0,97,-99.99,,,-99.99,,2013-08-02 16:02:00,
2013-08-02 09:12:00,54.0,53.0,30.41,SSE,167,1.0,7.0,97,-99.99,,,-99.99,,2013-08-02 16:12:00,
2013-08-02 09:32:00,55.0,54.0,30.41,SE,138,5.0,6.0,96,-99.99,,,-99.99,,2013-08-02 16:32:00,
2013-08-02 09:43:00,55.0,54.0,30.41,SE,138,5.0,6.0,96,-99.99,,,-99.99,,2013-08-02 16:43:00,
2013-08-02 09:52:00,55.0,54.0,30.41,ESE,120,5.0,5.0,96,-99.99,,,-99.99,,2013-08-02 16:52:00,
2013-08-02 10:02:00,55.0,54.0,30.41,SSE,150,1.0,10.0,96,-99.99,,,-99.99,,2013-08-02 17:02:00,
2013-08-02 10:11:00,55.0,54.0,30.41,SSE,150,1.0,10.0,96,-99.99,,,-99.99,,2013-08-02 17:11:00,
2013-08-02 10:22:00,55.0,54.0,30.41,WSW,237,3.0,9.0,95,-99.99,,,-99.99,,2013-08-02 17:22:00,
2013-08-02 10:34:00,55.0,54.0,30.41,WSW,237,3.0,9.0,95,-99.99,,,-99.99,,2013-08-02 17:34:00,
2013-08-02 10:43:00,56.0,54.0,30.42,SE,138,2.0,8.0,94,-99.99,,,-99.99,,2013-08-02 17:43:00,
2013-08-02 10:52:00,56.0,54.0,30.42,SSW,199,2.0,7.0,94,-99.99,,,-99.99,,2013-08-02 17:52:00,
2013-08-02 11:02:00,57.0,55.0,30.42,SW,230,0.0,7.0,92,-99.99,,,-99.99,,2013-08-02 18:02:00,
2013-08-02 11:32:00,58.0,55.0,30.41,SW,230,3.0,7.0,90,-99.99,,,-99.99,,2013-08-02 18:32:00,
2013-08-02 11:43:00,59.0,55.0,30.41,SSE,162,0.0,8.0,88,-99.99,,,-99.99,,2013-08-02 18:43:00,
2013-08-02 11:52:00,59.0,55.0,30.41,SSE,162,0.0,8.0,88,-99.99,,,-99.99,,2013-08-02 18:52:00,
2013-08-02 12:01:00,60.0,54.0,30.41,West,263,7.0,12.0,82,-99.99,,,-99.99,,2013-08-02 19:01:00,
2013-08-02 12:11:00,60.0,54.0,30.41,West,263,7.0,12.0,82,-99.99,,,-99.99,,2013-08-02 19:11:00,
2013-08-02 12:22:00,62.0,55.0,30.40,WSW,239,0.0,8.0,77,-99.99,,,-99.99,,2013-08-02 19:22:00,
2013-08-02 12:32:00,64.0,55.0,30.40,NW,326,1.0,8.0,72,-99.99,,,-99.99,,2013-08-02 19:32:00,
2013-08-02 12:43:00,64.0,55.0,30.40,NW,326,1.0,8.0,72,-99.99,,,-99.99,,2013-08-02 19:43:00,
2013-08-02 13:02:00,66.0,56.0,30.39,WSW,250,3.0,11.0,69,-99.99,,,-99.99,,2013-08-02 20:02:00,
2013-08-02 13:12:00,66.0,55.0,30.39,SW,222,5.0,11.0,68,-99.99,,,-99.99,,2013-08-02 20:12:00,
2013-08-02 13:22:00,66.0,55.0,30.39,SW,222,5.0,11.0,68,-99.99,,,-99.99,,2013-08-02 20:22:00,
2013-08-02 13:32:00,67.0,55.0,30.38,SW,232,6.0,11.0,66,-99.99,,,-99.99,,2013-08-02 20:32:00,
2013-08-02 13:43:00,67.0,55.0,30.38,WSW,250,7.0,12.0,65,-99.99,,,-99.99,,2013-08-02 20:43:00,
2013-08-02 13:52:00,67.0,55.0,30.38,WSW,250,7.0,12.0,65,-99.99,,,-99.99,,2013-08-02 20:52:00,
2013-08-02 14:02:00,67.0,55.0,30.38,WSW,250,7.0,12.0,65,-99.99,,,-99.99,,2013-08-02 21:02:00,
2013-08-02 14:11:00,67.0,55.0,30.38,WSW,250,7.0,12.0,65,-99.99,,,-99.99,,2013-08-02 21:11:00,
2013-08-02 14:32:00,66.0,55.0,30.38,SW,223,8.0,14.0,67,-99.99,,,-99.99,,2013-08-02 21:32:00,
2013-08-02 14:43:00,65.0,55.0,30.38,WSW,243,8.0,14.0,69,-99.99,,,-99.99,,2013-08-02 21:43:00,
2013-08-02 14:53:00,65.0,55.0,30.38,WSW,243,8.0,14.0,69,-99.99,,,-99.99,,2013-08-02 21:53:00,
2013-08-02 15:02:00,65.0,55.0,30.38,SW,223,14.0,16.0,69,-99.99,,,-99.99,,2013-08-02 22:02:00,
2013-08-02 15:32:00,65.0,55.0,30.38,WSW,257,13.0,14.0,70,-99.99,,,-99.99,,2013-08-02 22:32:00,
2013-08-02 15:52:00,64.0,54.0,30.38,WSW,247,10.0,15.0,71,-99.99,,,-99.99,,2013-08-02 22:52:00,
2013-08-02 16:01:00,64.0,54.0,30.38,WSW,247,10.0,15.0,71,-99.99,,,-99.99,,2013-08-02 23:01:00,
2013-08-02 16:22:00,64.0,54.0,30.37,SW,232,11.0,16.0,70,-99.99,,,-99.99,,2013-08-02 23:22:00,
2013-08-02 16:43:00,63.0,54.0,30.37,SW,229,10.0,16.0,73,-99.99,,,-99.99,,2013-08-02 23:43:00,
2013-08-02 16:53:00,62.0,54.0,30.37,SW,223,14.0,17.0,75,-99.99,,,-99.99,,2013-08-02 23:53:00,
2013-08-02 17:02:00,62.0,54.0,30.37,SW,223,14.0,17.0,75,-99.99,,,-99.99,,2013-08-03 00:02:00,
2013-08-02 17:11:00,62.0,55.0,30.37,SW,233,10.0,16.0,77,-99.99,,,-99.99,,2013-08-03 00:11:00,
2013-08-02 17:22:00,61.0,54.0,30.37,SSW,209,10.0,17.0,78,-99.99,,,-99.99,,2013-08-03 00:22:00,
2013-08-02 17:43:00,60.0,53.0,30.37,SW,215,10.0,14.0,79,-99.99,,,-99.99,,2013-08-03 00:43:00,
2013-08-02 18:11:00,59.0,54.0,30.37,SW,232,8.0,16.0,82,-99.99,,,-99.99,,2013-08-03 01:11:00,
2013-08-02 18:22:00,59.0,54.0,30.37,SW,232,8.0,16.0,82,-99.99,,,-99.99,,2013-08-03 01:22:00,
2013-08-02 19:22:00,56.0,53.0,30.37,SW,215,7.0,12.0,90,-99.99,,,-99.99,,2013-08-03 02:22:00,
2013-08-02 19:32:00,56.0,53.0,30.37,SW,229,5.0,10.0,90,-99.99,,,-99.99,,2013-08-03 02:32:00,
2013-08-02 19:43:00,55.0,52.0,30.39,SSW,210,6.0,11.0,91,-99.99,,,-99.99,,2013-08-03 02:43:00,
2013-08-02 19:52:00,55.0,52.0,30.39,SSW,210,6.0,11.0,91,-99.99,,,-99.99,,2013-08-03 02:52:00,
2013-08-02 20:32:00,54.0,52.0,29.97,SSW,203,6.0,12.0,92,-99.99,,,-99.99,,2013-08-03 03:32:00,
2013-08-02 20:43:00,54.0,52.0,29.97,SSE,161,2.0,10.0,92,-99.99,,,-99.99,,2013-08-03 03:43:00,
2013-08-02 20:53:00,54.0,52.0,29.97,SSE,161,2.0,10.0,92,-99.99,,,-99.99,,2013-08-03 03:53:00,
2013-08-02 21:02:00,54.0,52.0,29.97,SSE,161,2.0,10.0,92,-99.99,,,-99.99,,2013-08-03 04:02:00,
2013-08-02 21:12:00,54.0,52.0,29.97,SSE,161,2.0,10.0,92,-99.99,,,-99.99,,2013-08-03 04:12:00,
2013-08-02 21:22:00,54.0,52.0,29.97,SSE,161,2.0,10.0,92,-99.99,,,-99.99,,2013-08-03 04:22:00,
2013-08-02 21:33:00,54.0,52.0,29.98,SSE,167,3.0,7.0,94,-99.99,,,-99.99,,2013-08-03 04:33:00,
2013-08-02 21:53:00,54.0,52.0,29.98,SSW,199,3.0,8.0,94,-99.99,,,-99.99,,2013-08-03 04:53:00,
2013-08-02 22:02:00,54.0,52.0,29.98,SSW,199,3.0,8.0,94,-99.99,,,-99.99,,2013-08-03 05:02:00,
2013-08-02 22:11:00,54.0,53.0,29.98,SSE,160,5.0,6.0,95,-99.99,,,-99.99,,2013-08-03 05:11:00,
2013-08-02 22:32:00,54.0,53.0,29.99,SSW,209,2.0,6.0,95,-99.99,,,-99.99,,2013-08-03 05:32:00,
2013-08-02 22:52:00,54.0,53.0,29.99,South,186,4.0,7.0,95,-99.99,,,-99.99,,2013-08-03 05:52:00,
2013-08-02 23:01:00,54.0,53.0,29.99,South,186,4.0,7.0,95,-99.99,,,-99.99,,2013-08-03 06:01:00,
2013-08-02 23:32:00,54.0,53.0,29.99,ESE,113,2.0,6.0,96,-99.99,,,-99.99,,2013-08-03 06:32:00,
2013-08-02 23:42:00,54.0,53.0,29.99,ESE,113,2.0,6.0,96,-99.99,,,-99.99,,2013-08-03 06:42:00,
2013-08-02 23:52:00,54.0,53.0,29.99,ESE,113,2.0,6.0,96,-99.99,,,-99.99,,2013-08-03 06:52:00,